Miscellaneous Local Product
Issued by NWS Hastings, NE

Home | Current Version | Previous Version | Graphics & Text | Print | Product List | Glossary On
Versions: 1 2 3 4 5 6 7 8 9 10 11 12 13 14 15 16 17 18 19 20 21 22 23 24 25 26 27 28 29 30 31 32 33 34 35 36 37 38 39 40 41 42 43 44 45 46 47 48 49 50
000
AXUS43 KGID 081702
MISGRI

GID CWA HOURLY WEATHER ROUNDUP
NATIONAL WEATHER SERVICE HASTINGS NE
1100 AM CST MON FEB 08 2016

NOTE: "FAIR" INDICATES FEW OR NO CLOUDS BELOW 12,000 FEET WITH NO
SIGNIFICANT WEATHER AND/OR OBSTRUCTIONS TO VISIBILITY.

...SOUTH CENTRAL NEBRASKA...

CITY           SKY/WX    TMP DP  RH WIND       PRES   REMARKS
GRAND ISLAND   SUNNY     30  16  56 NW29G39   30.22R WCI  15
HASTINGS       SUNNY     31  17  56 NW28G36   30.22R WCI  17
ORD            SUNNY     30  16  56 NW33G47   30.22R WCI  14
YORK           PTSUNNY   30  19  64 NW30G40   30.17R WCI  15
AURORA         SUNNY     29  18  62 NW36      30.20R WCI  13
LEXINGTON      SUNNY     31  17  56 NW28G37   30.30R WCI  16
HOLDREGE       SUNNY     30  17  57 NW22G36   30.27R WCI  17
HEBRON         PTSUNNY   30  19  64 NW29G41   30.21R WCI  15

...NEBRASKA PANHANDLE...

CITY           SKY/WX    TMP DP  RH WIND       PRES   REMARKS
CHADRON        CLOUDY    33  13  43 NW18G28   30.40S WCI  22
ALLIANCE       CLOUDY    29  13  51 NW18      30.36R WCI  16
SCOTTSBLUFF    MOSUNNY   33  17  51 NW23      30.39S WCI  21
SIDNEY         CLOUDY    31  17  56 NW16      30.37R WCI  20

...WESTERN AND NORTH CENTRAL NEBRASKA...

CITY           SKY/WX    TMP DP  RH WIND       PRES   REMARKS
VALENTINE      NOT AVBL
AINSWORTH      SUNNY     31  15  51 NW30G39   30.28R WCI  16
ONEILL         SUNNY     30  17  58 NW33G43   30.22R WCI  14
BROKEN BOW     SUNNY     32  15  49 N25G39    30.26R WCI  19
IMPERIAL       CLOUDY    31  13  47 NW20      30.37R WCI  19
NORTH PLATTE   SUNNY     32  14  47 NW24G36   30.33R WCI  19
MCCOOK         CLOUDY    32  15  49 NW28G39   30.35R WCI  18

...EASTERN NEBRASKA...

CITY           SKY/WX    TMP DP  RH WIND       PRES   REMARKS
NORFOLK        CLOUDY    28  17  63 NW37G46   30.14R WCI  11
SO SIOUX CITY  FLURRIES  25  14  63 N38G49    30.11R WCI   6
TEKAMAH        MIX PCPN  28  17  63 NW32G39   30.12R WCI  12
COLUMBUS       CLOUDY    28  12  50 NW26G39   30.17R WCI  13
ALBION         MOSUNNY   28  18  64 NW32G39   30.17R WCI  12
OMAHA EPPLEY   FLURRIES  27  17  66 NW26G35   30.10R WCI  12
OFFUTT AFB     CLOUDY    28  16  60 NW24G38   30.09R WCI  14
MILLARD        CLOUDY    29  19  65 N15G26    30.12R WCI  17
LINCOLN        CLOUDY    30  17  58 NW35G45   30.16R WCI  14
NEBRASKA CITY  CLOUDY    29  19  66 N26G39    30.10R WCI  14
BEATRICE       CLOUDY    30  19  62 N37G46    30.17R WCI  14
FALLS CITY     FLURRIES  30  20  66 NW24G33   30.10R WCI  16

...NORTHERN KANSAS...

CITY           SKY/WX    TMP DP  RH WIND       PRES   REMARKS
GOODLAND       CLOUDY    31  17  56 NW18G28   30.38R WCI  19
HILL CITY      SUNNY     34  17  50 NW28G38   30.35R WCI  21
NORTON         SUNNY     34  16  47 NW25G35   30.32S HAZE    WCI  21
PHILLIPSBURG   SUNNY     34  19  55 NW25G33   30.31R WCI  21
SMITH CENTER   SUNNY     32  19  59 NW31      30.29R WCI  17
BELOIT         SUNNY     34  18  51 NW24G37   30.27R WCI  21
HAYS           SUNNY     36  12  38 NW35G40   30.32R WCI  22
RUSSELL        SUNNY     36  17  46 NW30G47   30.29R WCI  23
CONCORDIA      MOSUNNY   33  17  51 NW26G41   30.23R WCI  20
SALINA         SUNNY     39  14  36 NW36G44   30.25R WCI  26
TOPEKA         CLOUDY    34  16  47 NW24G37   30.14R WCI  21



USA.gov is the U.S. government's official web portal to all federal, state and local government web resources and services.